When you browse on this site, cookies collect data to enhance your experience and personalize the content and advertising you see.
Visit our Privacy Policy to learn more. By continuing to use the site, you agree to this use of cookies and data.
  • Em Portugal
  • Lista de países
  • Para 7 dias
  • Temperatura da água
  • Mapa do tempo
  • Widgets de tempo
  • user-avatar
    Iniciar Sessão

    Previsão horária em Graz

    Hoje, 24 Fevereiro, Segunda-feira

    Tempo Temperatura Precipitação Vento Pressão Humidade
    00:00 +9°C° 0 mm 2 m/s 723 mmHg 77%
    01:00 +9°C° 0 mm 3 m/s 723 mmHg 77%
    02:00 +9°C° 0 mm 2 m/s 724 mmHg 77%
    03:00 +9°C° 0 mm 2 m/s 724 mmHg 78%
    04:00 +9°C° 0 mm 2 m/s 725 mmHg 79%
    05:00 +8°C° 0.1 mm 2 m/s 726 mmHg 80%
    06:00 +8°C° 0.1 mm 2 m/s 727 mmHg 82%
    07:00 +7°C° 0.1 mm 2 m/s 728 mmHg 83%
    08:00 +7°C° 0 mm 2 m/s 728 mmHg 78%
    09:00 +8°C° 0 mm 2 m/s 728 mmHg 73%
    10:00 +8°C° 0 mm 2 m/s 729 mmHg 68%
    11:00 +8°C° 0 mm 2 m/s 729 mmHg 68%
    12:00 +10°C° 0 mm 1 m/s 729 mmHg 67%
    13:00 +10°C° 0 mm 1 m/s 729 mmHg 67%
    14:00 +10°C° 0 mm 1 m/s 728 mmHg 70%
    15:00 +9°C° 0 mm 1 m/s 728 mmHg 73%
    16:00 +9°C° 0 mm 1 m/s 727 mmHg 75%
    17:00 +8°C° 0 mm 1 m/s 726 mmHg 80%
    18:00 +7°C° 0 mm 1 m/s 726 mmHg 84%
    19:00 +7°C° 0 mm 1 m/s 725 mmHg 88%
    20:00 +6°C° 0 mm 1 m/s 725 mmHg 89%
    21:00 +6°C° 0 mm 1 m/s 724 mmHg 90%
    22:00 +6°C° 0 mm 1 m/s 724 mmHg 91%
    23:00 +6°C° 0 mm 1 m/s 723 mmHg 91%

    Amanhã, 25 Fevereiro, Terça-feira

    Tempo Temperatura Precipitação Vento Pressão Humidade
    00:00 +6°C° 0 mm 1 m/s 723 mmHg 92%
    01:00 +6°C° 0 mm 1 m/s 722 mmHg 92%
    02:00 +5°C° 0 mm 1 m/s 721 mmHg 92%
    03:00 +5°C° 0 mm 1 m/s 721 mmHg 92%
    04:00 +5°C° 0 mm 1 m/s 720 mmHg 93%
    05:00 +5°C° 0 mm 1 m/s 720 mmHg 93%
    06:00 +5°C° 0 mm 1 m/s 719 mmHg 93%
    07:00 +5°C° 0 mm 1 m/s 719 mmHg 93%
    08:00 +7°C° 0 mm 1 m/s 719 mmHg 85%
    09:00 +9°C° 0 mm 1 m/s 719 mmHg 78%
    10:00 +11°C° 0 mm 1 m/s 718 mmHg 71%
    11:00 +12°C° 0 mm 1 m/s 718 mmHg 66%
    12:00 +13°C° 0 mm 1 m/s 717 mmHg 62%
    13:00 +15°C° 0 mm 1 m/s 717 mmHg 57%
    14:00 +14°C° 0 mm 1 m/s 716 mmHg 60%
    15:00 +14°C° 0 mm 1 m/s 715 mmHg 62%
    16:00 +13°C° 0 mm 1 m/s 715 mmHg 64%
    17:00 +12°C° 0.1 mm 1 m/s 714 mmHg 70%
    18:00 +11°C° 0.1 mm 1 m/s 714 mmHg 76%
    19:00 +10°C° 0.1 mm 1 m/s 714 mmHg 82%
    20:00 +10°C° 0.2 mm 1 m/s 714 mmHg 84%
    21:00 +9°C° 0.2 mm 1 m/s 714 mmHg 87%
    22:00 +9°C° 0.2 mm 1 m/s 713 mmHg 89%
    23:00 +8°C° 0.8 mm 1 m/s 713 mmHg 90%

    Depois de amanhã, 26 Fevereiro, Quarta-feira

    Tempo Temperatura Precipitação Vento Pressão Humidade
    00:00 +8°C° 0.8 mm 1 m/s 713 mmHg 90%
    01:00 +8°C° 0.8 mm 1 m/s 712 mmHg 91%
    02:00 +7°C° 0.6 mm 1 m/s 712 mmHg 92%
    03:00 +7°C° 0.6 mm 1 m/s 712 mmHg 92%
    04:00 +7°C° 0.6 mm 1 m/s 711 mmHg 93%
    05:00 +6°C° 2.1 mm 1 m/s 711 mmHg 93%
    06:00 +5°C° 2.1 mm 1 m/s 711 mmHg 93%
    07:00 +5°C° 2.1 mm 1 m/s 711 mmHg 93%
    08:00 +4°C° 2.4 mm 1 m/s 710 mmHg 94%
    09:00 +4°C° 2.4 mm 1 m/s 710 mmHg 95%
    10:00 +4°C° 2.4 mm 1 m/s 710 mmHg 95%
    11:00 +4°C° 2.2 mm 1 m/s 710 mmHg 96%
    12:00 +4°C° 2.2 mm 1 m/s 710 mmHg 96%
    13:00 +2°C° 2.2 mm 0 m/s 710 mmHg 97%
    14:00 +3°C° 2.1 mm 1 m/s 711 mmHg 94%
    15:00 +3°C° 2.1 mm 1 m/s 711 mmHg 90%
    16:00 +3°C° 2.1 mm 1 m/s 711 mmHg 87%
    17:00 +2°C° 0.2 mm 1 m/s 711 mmHg 87%
    18:00 +2°C° 0.2 mm 1 m/s 712 mmHg 88%
    19:00 +2°C° 0.2 mm 1 m/s 712 mmHg 88%
    20:00 -1°C° 0 mm 2 m/s 713 mmHg 86%
    21:00 -1°C° 0 mm 2 m/s 713 mmHg 84%
    22:00 -2°C° 0 mm 2 m/s 713 mmHg 83%
    23:00 -2°C° 0 mm 2 m/s 713 mmHg 82%

    27 Fevereiro, Quinta-feira

    Tempo Temperatura Precipitação Vento Pressão Humidade
    00:00 -2°C° 0 mm 2 m/s 714 mmHg 82%
    01:00 -2°C° 0 mm 2 m/s 714 mmHg 82%
    02:00 -3°C° 0 mm 2 m/s 714 mmHg 82%
    03:00 -3°C° 0 mm 2 m/s 714 mmHg 82%
    04:00 -3°C° 0 mm 2 m/s 715 mmHg 82%
    05:00 -3°C° 0 mm 2 m/s 716 mmHg 83%
    06:00 -3°C° 0 mm 2 m/s 716 mmHg 83%
    07:00 -3°C° 0 mm 2 m/s 717 mmHg 83%
    08:00 -2°C° 0 mm 2 m/s 718 mmHg 78%
    09:00 +1°C° 0 mm 2 m/s 719 mmHg 73%
    10:00 +2°C° 0 mm 3 m/s 719 mmHg 68%
    11:00 +3°C° 0 mm 3 m/s 719 mmHg 65%
    12:00 +3°C° 0 mm 3 m/s 720 mmHg 62%
    13:00 +4°C° 0 mm 3 m/s 720 mmHg 60%
    14:00 +5°C° 0 mm 2 m/s 719 mmHg 61%
    15:00 +5°C° 0 mm 2 m/s 719 mmHg 62%
    16:00 +6°C° 0 mm 1 m/s 719 mmHg 63%
    17:00 +4°C° 0 mm 1 m/s 719 mmHg 69%
    18:00 +3°C° 0 mm 1 m/s 718 mmHg 74%
    19:00 +1°C° 0 mm 1 m/s 718 mmHg 80%
    20:00 +1°C° 0 mm 1 m/s 718 mmHg 81%
    21:00 +1°C° 0 mm 1 m/s 717 mmHg 81%
    22:00 +1°C° 0 mm 1 m/s 717 mmHg 82%
    23:00 +1°C° 0 mm 1 m/s 716 mmHg 83%

    28 Fevereiro, Sexta-feira

    Tempo Temperatura Precipitação Vento Pressão Humidade
    00:00 +1°C° 0 mm 1 m/s 716 mmHg 84%
    01:00 -1°C° 0 mm 2 m/s 715 mmHg 84%
    02:00 -1°C° 0 mm 2 m/s 715 mmHg 84%
    03:00 -2°C° 0 mm 2 m/s 714 mmHg 84%
    04:00 -2°C° 0 mm 2 m/s 714 mmHg 84%
    05:00 -2°C° 0 mm 2 m/s 714 mmHg 83%
    06:00 -2°C° 0 mm 2 m/s 714 mmHg 83%
    07:00 -2°C° 0 mm 2 m/s 715 mmHg 82%
    08:00 +1°C° 0 mm 2 m/s 715 mmHg 79%
    09:00 +3°C° 0 mm 2 m/s 715 mmHg 75%
    10:00 +5°C° 0 mm 2 m/s 716 mmHg 72%
    11:00 +6°C° 0 mm 2 m/s 716 mmHg 71%
    12:00 +7°C° 0 mm 2 m/s 716 mmHg 71%
    13:00 +8°C° 0 mm 2 m/s 716 mmHg 71%
    14:00 +8°C° 0 mm 2 m/s 716 mmHg 73%
    15:00 +8°C° 0 mm 2 m/s 717 mmHg 75%
    16:00 +9°C° 0 mm 1 m/s 717 mmHg 78%
    17:00 +7°C° 0 mm 1 m/s 717 mmHg 81%
    18:00 +6°C° 0 mm 1 m/s 717 mmHg 84%
    19:00 +5°C° 0 mm 1 m/s 717 mmHg 86%
    20:00 +5°C° 0 mm 1 m/s 717 mmHg 86%
    21:00 +4°C° 0 mm 1 m/s 717 mmHg 86%
    22:00 +4°C° 0 mm 1 m/s 717 mmHg 86%
    23:00 +4°C° 0 mm 1 m/s 716 mmHg 86%

    29 Fevereiro, Sábado

    Tempo Temperatura Precipitação Vento Pressão Humidade
    00:00 +4°C° 0 mm 1 m/s 715 mmHg 85%
    01:00 +4°C° 0 mm 1 m/s 715 mmHg 85%
    02:00 +4°C° 0 mm 1 m/s 714 mmHg 85%
    03:00 +3°C° 0 mm 1 m/s 713 mmHg 86%
    04:00 +3°C° 0 mm 1 m/s 713 mmHg 87%
    05:00 +3°C° 0 mm 1 m/s 712 mmHg 87%
    06:00 +3°C° 0 mm 1 m/s 712 mmHg 88%
    07:00 +3°C° 0 mm 1 m/s 711 mmHg 88%
    08:00 +5°C° 0 mm 1 m/s 711 mmHg 86%
    09:00 +7°C° 0 mm 1 m/s 711 mmHg 84%
    10:00 +8°C° 0 mm 1 m/s 711 mmHg 81%
    11:00 +9°C° 0 mm 1 m/s 711 mmHg 79%
    12:00 +9°C° 0 mm 2 m/s 710 mmHg 77%
    13:00 +10°C° 0 mm 2 m/s 710 mmHg 75%
    14:00 +10°C° 0 mm 2 m/s 710 mmHg 77%
    15:00 +11°C° 0 mm 1 m/s 710 mmHg 80%
    16:00 +10°C° 0 mm 1 m/s 710 mmHg 82%
    17:00 +9°C° 0.3 mm 1 m/s 710 mmHg 85%
    18:00 +8°C° 0.3 mm 1 m/s 710 mmHg 89%
    19:00 +6°C° 0.3 mm 2 m/s 710 mmHg 92%
    20:00 +5°C° 1.8 mm 2 m/s 710 mmHg 93%
    21:00 +4°C° 1.8 mm 2 m/s 710 mmHg 94%
    22:00 +3°C° 1.8 mm 2 m/s 710 mmHg 95%
    23:00 +3°C° 1.9 mm 2 m/s 710 mmHg 96%
    Mostrar mais